Starlink 11298

operational
NORAD ID: 61211 Int'l Des: 2024-171 Owner: SPXS Country: US Constellation: starlink
LEOCIRCULAR

About Starlink 11298

Description loading...

Live Position

Loading 3D Globe...

Upcoming Passes

Altitude History

Altitude vs Time

uPlot chart will show altitude changes over time

Two-Line Element Set

1 61211U 24171M 25305.13516373 .00000076 00000-0 54888-5 0 9991
2 61211 53.1608 90.2913 0001130 99.4136 260.7010 15.69715830 64200
Epoch: Nov 1, 2025 • Age: 23 hours

Current Status

Altitude 365.4 km
Velocity 7.70 km/s
Sub-Earth Point 52.55°N, 82.8°E
Launch Date Sep 20, 2024
Age 1.1 years
Type internet

Technical Details

Classification Payload
Mass 960.00 kg
Dry Mass 910.00 kg
Total Mass 960.00 kg
Length 0.30 m
Diameter 4.10 m
Span 29.00 m
Shape Box + pan
Manufacturer SPXS
Bus Type Starlink V2MD
Phase Status In Orbit
Owner/State SPXS/US

Large Constellations

Loading constellations...